Weather in Bilina Kyselka

Czech Republic     50°32′50″N   13°46′28″E
temp.,
°C
wind,
m/s
gust,
m/s
humid.,
%
clouds,
%
prec.,
mm/h
press.,
hPa
HPBL,
m
14 april, wed
wed1423:00+3nw3866100 0.0 1028277
02:00+2nw2471100 0.0 102880
05:000nw2380100 0.0 102894
08:00+2nnw3769100 0.0 1029760
11:00+5nnw5648100 0.0 10281419
14:00+7nnw6640100 0.0 10262287
17:00+6nnw5641100 0.0 10261940
20:00+3nnw2353100 0.0 102652
15 april, thu
thu1523:00+1nw2266100 0.0 102734
02:00+1nw2271100 0.0 102732
05:000nnw227973 0.0 102735
08:00+1nnw2670100 0.0 1027671
11:00+4n5650100 0.0 10271508
14:00+5n6760100 0.1 10261428
17:00+4n5761100 0.1 10261246
20:00+2n4877100 0.2 1026767
16 april, fri
fri1623:00+1wnw2780100 0.1 1025616
02:00+1wnw248499 0.1 1024245
05:00+1wnw2387100 0.1 1023225
08:00+1nw239296 0.3 1023383
11:00+3nnw2384100 0.1 1024607
14:00+3nnw2395100 0.3 1024409
17:00+3nnw1397100 0.1 1024362
20:00+3nw1293100 0.2 1024186
17 april, sat
sat1723:00+3wnw1290100 0.1 102492
02:00+3w1294100 0.3 102476
05:00+3nw1397100 0.1 1023355
08:00+3nnw1498100 0.1 1024465
11:00+3nw1397100 0.3 1024536
14:00+4nnw1397100 0.5 1024469
17:00+4nnw1497100 0.0 1023385
20:00+4nw1298100 0.1 1023203
18 april, sun
sun1823:00+4wnw1298100 0.3 1023102
02:00+4nw2396100 0.6 1022105
05:00+4nnw2295100 0.4 102273
08:00+6nnw128735 0.4 1022204
11:00+9nne337574 0.0 1022822
14:00+11n336478 0.6 10211153
17:00+10nnw457086 0.3 1021971
20:00+7nw248673 0.4 1021212